Location: Maynard F. Jordan Observatory
(44.9000°N, 68.6700°W)
Time: 21:48:26
(UTC-04:00)

Cosmos 2297 Rocket - Visible Passes

Search period start: 01 September 2014 00:00
Search period end: 11 September 2014 00:00
Orbit: 841 x 843 km, 71.0° (Epoch: 31 August)

Date Brightness Start Highest point End Pass type
(mag) Time Alt. Az. Time Alt. Az. Time Alt. Az.
01 Sep 4.0 00:28:09 10° N 00:32:20 25° NE 00:32:20 25° NE visible
01 Sep 3.8 02:11:43 10° NNW 02:14:06 26° NW 02:14:06 26° NW visible
02 Sep 4.0 00:13:12 10° N 00:17:06 24° NE 00:17:06 24° NE visible
02 Sep 3.9 01:56:42 10° NNW 01:58:52 24° NW 01:58:52 24° NW visible
02 Sep 4.1 23:58:14 10° N 00:01:56 23° NE 00:01:56 23° NE visible
03 Sep 4.0 01:41:40 10° NNW 01:43:43 23° NW 01:43:43 23° NW visible
03 Sep 4.1 23:43:16 10° N 23:46:49 22° NE 23:46:49 22° NE visible
04 Sep 4.1 01:26:39 10° NNW 01:28:36 22° NW 01:28:36 22° NW visible
04 Sep 4.2 23:28:19 10° N 23:31:45 21° NE 23:31:45 21° NE visible
05 Sep 4.2 01:11:38 10° NNW 01:13:32 22° NNW 01:13:32 22° NNW visible
05 Sep 4.2 23:13:22 10° N 23:16:44 20° NE 23:16:44 20° NE visible
06 Sep 4.2 00:56:37 10° NNW 00:58:31 22° NNW 00:58:31 22° NNW visible
06 Sep 4.2 22:58:25 10° N 23:01:44 20° NE 23:01:44 20° NE visible
07 Sep 4.2 00:41:37 10° NNW 00:43:32 22° NNW 00:43:32 22° NNW visible
07 Sep 4.2 22:43:28 10° N 22:46:47 19° NE 22:46:47 19° NE visible
08 Sep 4.2 00:26:36 10° NNW 00:28:34 23° NNW 00:28:34 23° NNW visible
08 Sep 4.2 22:28:31 10° N 22:31:51 19° NE 22:31:51 19° NE visible
09 Sep 4.2 00:11:36 10° NNW 00:13:39 23° NNW 00:13:39 23° NNW visible
09 Sep 4.2 22:13:35 10° N 22:16:57 18° NE 22:16:57 18° NE visible
09 Sep 4.2 23:56:35 10° NNW 23:58:45 24° NNW 23:58:45 24° NNW visible
10 Sep 4.1 21:58:39 10° N 22:02:05 17° NE 22:02:05 17° NE visible
10 Sep 4.1 23:41:35 10° NNW 23:43:53 25° NNW 23:43:53 25° NNW visible
